GW1419 Weather Reports


Display with metric or nautical units.
time (UTC)temp
F
wind
direction
speed
MPH
gust
MPH
rain 1hr
in
rain 24hr
in
rain mn
in
humidity
%
barometer
mb
20260504204526 81 281 7.0 26.0 0.00 0.00 0.00 47 1007.8
20260504203023 82 267 5.0 17.0 0.00 0.00 0.00 46 1008.0
20260504201526 82 225 8.0 20.0 0.00 0.00 0.00 45 1008.2
20260504200020 81 206 7.0 19.0 0.00 0.00 0.00 46 1008.3
20260504194519 82 192 9.0 21.0 0.00 0.00 0.00 45 1008.4
20260504193014 82 230 9.0 21.0 0.00 0.00 0.00 45 1008.5
20260504191513 81 163 4.0 18.0 0.00 0.00 0.00 46 1008.5
20260504190010 80 175 8.0 20.0 0.00 0.00 0.00 46 1008.6
20260504184512 81 241 10.0 23.0 0.00 0.00 0.00 46 1008.9
20260504183006 80 271 6.0 19.0 0.00 0.00 0.00 45 1009.1
20260504181503 80 225 6.0 15.0 0.00 0.00 0.00 46 1009.3
20260504180001 80 173 7.0 20.0 0.00 0.00 0.00 46 1009.3
20260504174612 80 159 6.0 17.0 0.00 0.00 0.00 47 1009.5
20260504173058 80 234 5.0 15.0 0.00 0.00 0.00 49 1009.6
20260504171555 79 188 7.0 20.0 0.00 0.00 0.00 49 1009.6
20260504090108 63 175 4.0 12.0 0.00 0.00 0.00 73 1010.7
20260504081538 65 180 3.0 10.0 0.00 0.00 0.00 69 1010.7
20260504050009 67 184 5.0 10.0 0.00 0.00 0.00 63 1012.7
20260504044521 67 175 5.0 11.0 0.00 0.00 0.00 62 1012.8
20260504043007 67 171 7.0 10.0 0.00 0.00 0.00 61 1013.0
20260504041506 67 176 5.0 9.0 0.00 0.00 0.00 61 1013.0
20260504040006 68 167 5.0 12.0 0.00 0.00 0.00 61 1013.0
20260504034506 68 170 6.0 12.0 0.00 0.00 0.00 60 1013.0
20260504033008 68 169 7.0 10.0 0.00 0.00 0.00 61 1013.1
20260504031504 68 190 5.0 8.0 0.00 0.00 0.00 62 1013.1
20260504030005 68 169 4.0 9.0 0.00 0.00 0.00 62 1013.2
20260504024505 67 157 5.0 10.0 0.00 0.00 0.00 62 1013.2
20260504023002 67 170 6.0 9.0 0.00 0.00 0.00 63 1013.2
20260504021501 67 164 6.0 10.0 0.00 0.00 0.00 63 1013.1
20260504020003 67 178 6.0 9.0 0.00 0.00 0.00 63 1012.9
20260504014501 67 165 7.0 11.0 0.00 0.00 0.00 62 1012.8
20260504013100 68 188 5.0 9.0 0.00 0.00 0.00 62 1012.8
20260504011600 68 155 5.0 10.0 0.00 0.00 0.00 62 1012.8
20260504010105 68 164 4.0 9.0 0.00 0.00 0.00 61 1012.6
20260504004557 69 167 5.0 10.0 0.00 0.00 0.00 60 1012.7
20260504003056 69 168 6.0 9.0 0.00 0.00 0.00 58 1012.8
20260504001611 71 162 4.0 10.0 0.00 0.00 0.00 56 1013.0
20260504000054 72 167 4.0 9.0 0.00 0.00 0.00 55 1013.1
20260503234553 73 160 5.0 11.0 0.00 0.00 0.00 53 1013.2
20260503233051 73 183 8.0 14.0 0.00 0.00 0.00 50 1013.3
20260503231549 74 167 4.0 9.0 0.00 0.00 0.00 50 1013.4
20260503230052 75 205 4.0 11.0 0.00 0.00 0.00 47 1013.7
20260503224546 76 217 1.0 9.0 0.00 0.00 0.00 47 1014.1
20260503223045 75 165 3.0 11.0 0.00 0.00 0.00 46 1014.0
20260503221544 75 198 3.0 10.0 0.00 0.00 0.00 46 1014.0
20260503220053 75 199 2.0 10.0 0.00 0.00 0.00 46 1014.3
20260503214537 75 195 3.0 14.0 0.00 0.00 0.00 45 1014.4
20260503213039 75 169 4.0 13.0 0.00 0.00 0.00 44 1014.7
20260503211535 76 196 2.0 11.0 0.00 0.00 0.00 43 1015.1
20260503210029 75 169 5.0 10.0 0.00 0.00 0.00 43 1015.4